Location: Astronomy Club of Akron Observatory
(40.9700°N, 81.5606°W)
Time: 15:58:09
(UTC-04:00)

Daily predictions for brighter satellites

Satellite Brightness Start Highest point End
(mag) Time Altitude Azimuth Time Altitude Azimuth Time Altitude Azimuth
Meteor 2-9 Rocket 4.3 19:42:28 10° SSW 19:47:54 81° W 19:53:15 10° N
Tiangong 2 2.7 19:51:07 10° W 19:54:00 30° SSW 19:56:51 10° SE
COSMO-SKYMED 1 3.3 19:51:03 10° N 19:55:20 59° WNW 19:59:35 10° SSW
Cosmos 1707 3.7 19:53:13 10° NNE 19:56:40 28° ENE 20:00:06 10° SE
CZ-4 R/B 4.4 19:53:25 10° SSW 19:56:42 23° W 20:00:03 10° NW
Cosmos 1709 Rocket 4.0 19:54:26 10° S 20:00:42 67° E 20:07:02 10° NNE
Cosmos 2369 Rocket 2.3 19:56:08 10° NNW 20:01:49 86° WSW 20:07:25 10° SSE
Cosmos 1340 Rocket 3.1 20:00:07 10° N 20:04:03 46° ENE 20:07:58 10° SSE
FENGYUN 3A 3.6 19:59:38 10° SSE 20:04:59 85° ENE 20:10:23 10° NNW
Cosmos 1758 Rocket 3.8 20:00:40 10° N 20:05:02 49° E 20:09:23 10° SSE
NOSS 2 (A) 4.4 20:03:13 10° NW 20:05:34 69° WSW 20:08:16 10° SSE
ALOS 2.4 20:04:42 10° S 20:09:22 81° WSW 20:14:04 10° NNW
Cosmos 389 Rocket 2.4 20:05:54 10° S 20:09:23 62° E 20:12:51 10° NNE
Envisat 4.3 20:05:50 10° ESE 20:09:36 21° ENE 20:13:23 10° NNE
BREEZE M DEB (TANK) 4.1 20:00:51 10° WNW 20:10:03 51° NNE 20:12:59 13° E
Lacrosse 5 2.4 20:05:21 10° NW 20:10:20 59° SW 20:15:18 10° SSE
Geosat 4.3 20:06:17 10° SSE 20:11:17 71° WSW 20:16:20 10° NNW
Cosmos 1726 Rocket 3.6 20:08:35 10° S 20:12:51 57° E 20:17:08 10° NNE
Cosmos 1271 Rocket 2.7 20:11:48 10° S 20:15:32 86° W 20:19:22 10° N
FREGAT/IRIS 2.5 20:15:08 10° SSE 20:18:10 87° ENE 20:21:12 10° N
Cosmos 2263 4.3 20:14:29 10° NNW 20:20:08 85° WSW 20:25:47 10° SSE
Resurs 01 Rocket 2.5 20:16:42 10° SE 20:20:32 30° ENE 20:24:23 10° N
BREEZE-M DEB (TANK) 4.3 20:17:34 10° WNW 20:20:55 36° N 20:30:36 10° ENE
Cosmos 858 Rocket 4.5 20:17:38 10° NNW 20:22:56 75° ENE 20:28:09 10° SSE
Cosmos 1943 4.0 20:18:18 10° SW 20:23:51 56° WNW 20:29:28 10° NNE
Cosmos 2184 Rocket 4.4 20:18:44 10° SSE 20:24:33 41° E 20:30:26 10° NNE
Cosmos 2298 Rocket 4.0 20:19:22 10° NNW 20:24:42 67° ENE 20:29:59 10° SSE
USA 186 3.3 20:25:28 14° NE 20:25:28 14° NE 20:26:21 10° NNE
FALCON 9 R/B 2.4 20:26:58 10° SW 20:29:46 34° SSE 20:33:19 18° ESE
CZ-2D R/B 3.6 20:26:31 11° SE 20:29:56 41° ENE 20:33:33 10° N
GP-B 4.3 20:27:05 10° NNE 20:30:35 22° E 20:31:49 20° ESE
Cosmos 468 Rocket 4.2 20:26:34 10° SSW 20:31:45 74° WNW 20:37:01 10° NNE
ORS 1 (USA 231) 4.4 20:29:38 10° WSW 20:32:34 65° S 20:33:49 30° E
OE (NEXTSAT) 4.5 20:29:41 10° WNW 20:33:14 70° SSW 20:35:15 23° SE
SJ-6B 2.8 20:29:12 10° SSE 20:33:15 89° ESE 20:37:16 10° NNW
Cosmos 1937 Rocket 3.5 20:28:03 10° NNW 20:33:24 79° ENE 20:38:40 10° SSE
Cosmos 841 Rocket 3.6 20:28:48 10° S 20:33:44 48° ESE 20:38:40 10° NNE
Cosmos 1378 3.0 20:31:30 10° N 20:35:17 77° E 20:39:03 10° SSE
Meteor 1-24 Rocket 4.1 20:32:46 10° N 20:38:35 49° ENE 20:43:59 11° SSE
USA 229 DEB 3.9 20:31:59 10° NW 20:39:11 84° WSW 20:46:32 10° SSE
Cosmos 371 Rocket 4.1 20:34:26 10° SW 20:39:13 55° WNW 20:44:03 10° N
USA 229 3.9 20:32:05 10° NW 20:39:17 84° WSW 20:46:37 10° SSE
NOSS 3-1 (A) 4.4 20:36:20 10° NNW 20:43:37 49° NE 20:48:54 22° ESE
HJ-1C 3.8 20:43:09 10° S 20:46:28 62° W 20:49:49 10° NNW
BREEZE-M DEB (TANK) 3.5 20:46:15 10° NNW 20:47:25 13° N 20:47:45 13° NNE
Cosmos 2058 Rocket 3.1 20:43:30 10° S 20:47:50 81° W 20:52:14 10° N
Cosmos 1812 Rocket 4.4 20:48:56 29° E 20:49:09 29° E 20:53:02 10° NNE
Cosmos 1544 3.6 20:49:31 35° E 20:49:31 35° E 20:52:44 10° NNE
Cosmos 2327 Rocket 4.4 20:43:48 10° S 20:49:49 60° E 20:55:48 10° NNE
Cosmos 2084 3.1 20:47:15 10° SSW 20:51:19 66° ESE 20:54:36 14° NE
Cosmos 1953 Rocket 4.4 20:47:09 10° NNW 20:51:23 52° W 20:55:34 10° S
Cosmos 2228 3.1 20:48:19 10° S 20:52:42 78° W 20:57:04 10° N
NOSS 3-1 (C) 4.1 20:47:05 10° NNW 20:54:40 70° NE 21:00:23 23° SE
Cosmos 1763 Rocket 3.6 20:51:35 10° SSW 20:56:40 77° WNW 21:01:51 10° NNE
Meteor 2-8 Rocket 4.5 20:53:09 10° N 20:59:11 56° ENE 21:03:15 21° SSE
MOS 1-B Rocket 4.0 20:55:10 13° SSE 21:00:59 66° ENE 21:06:41 10° N
ATLAS CENTAUR R/B 3.3 20:49:06 10° NW 21:03:00 89° SW 21:05:46 30° SE
Meteor 2-5 Rocket 4.2 20:58:11 10° NNW 21:04:00 66° W 21:09:42 10° S
Cosmos 540 Rocket 3.6 21:01:09 10° S 21:06:00 47° ESE 21:10:54 10° NNE
GEOS 3 Rocket 3.7 21:01:26 10° NE 21:06:47 60° ESE 21:12:04 10° SSW
Cosmos 1943 Rocket 3.5 21:05:26 10° NW 21:10:33 38° WSW 21:15:41 10° S
Meteor 2-19 Rocket 4.4 21:05:17 10° S 21:11:10 58° E 21:17:06 10° NNE
Meteor 1-22 Rocket 4.2 21:07:56 10° S 21:13:45 89° W 21:19:22 10° N
Spot 2 Rocket 3.4 21:12:52 22° SSE 21:16:11 85° WSW 21:21:16 10° NNW
Cosmos 836 Rocket 4.4 21:13:08 10° S 21:18:21 66° ESE 21:23:35 10° NNE
Cosmos 1939 Rocket 3.0 21:19:28 56° NE 21:19:28 56° NE 21:22:53 10° N
BREEZE-M DEB (TANK) 3.3 21:08:31 10° WSW 21:19:49 76° SSE 21:21:11 46° E
Cosmos 1766 3.5 21:17:29 10° SSW 21:21:24 67° W 21:25:20 10° N
Cosmos 2154 Rocket 3.8 21:22:50 10° S 21:29:00 73° E 21:35:15 10° NNE
COSMOS 2406 3.1 21:24:36 10° SSW 21:30:18 86° ESE 21:36:04 10° NNE
Cosmos 2341 Rocket 4.0 21:34:12 54° ESE 21:34:54 57° E 21:40:58 10° NNE
Cosmos 1125 Rocket 3.3 21:33:05 10° NNW 21:38:25 80° ENE 21:38:48 74° ESE
H-2A R/B 4.0 21:42:16 16° NNE 21:42:16 16° NNE 21:43:43 10° NNE
Helios 1A 4.3 21:47:42 32° N 21:47:42 32° N 21:50:03 10° N
Envisat 3.9 21:45:42 25° SSW 21:48:16 46° W 21:53:11 10° NNW
ERS-1 Rocket 4.0 21:51:22 34° NNE 21:51:22 34° NNE 21:54:33 10° N
ARGOS 4.2 21:57:13 33° NNE 21:57:13 33° NNE 22:00:37 10° N
Resurs 01 Rocket 3.7 21:54:17 15° SW 21:56:59 25° W 22:00:38 10° NW
Cosmos 372 Rocket 4.2 21:56:29 10° NNW 22:01:24 70° WNW 22:01:24 70° WNW
Nadezhda 3 Rocket 4.3 21:57:20 10° NNW 22:03:36 65° W 22:05:25 45° SSW
ATLAS 2AS CENTAUR R/B 3.5 22:18:18 10° NNW 22:25:45 46° NE 22:25:45 46° NE
USA 267 4.4 22:55:44 33° NNE 22:55:44 33° NNE 23:00:59 10° NW
Cosmos 1980 Rocket 4.3 22:54:35 10° N 22:56:29 20° N 22:56:29 20° N
Cosmos 1697 Rocket 4.5 22:54:40 10° NNW 22:57:04 26° N 22:57:04 26° N
